GW4572 Weather Reports


Display with metric or nautical units.
time (UTC)temp
F
wind
direction
speed
MPH
gust
MPH
rain 1hr
in
rain 24hr
in
rain mn
in
humidity
%
barometer
mb
20260506145357 57 268 13.0 16.0 0.00 0.23 0.23 91 1011.1
20260506144855 57 268 13.0 16.0 0.00 0.23 0.23 91 1011.1
20260506144351 57 237 8.0 13.0 0.00 0.23 0.23 92 1011.0
20260506143850 57 274 6.0 9.0 0.00 0.23 0.23 92 1010.9
20260506143346 57 254 5.0 10.0 0.00 0.23 0.23 92 1010.9
20260506142845 57 259 8.0 9.0 0.00 0.23 0.23 92 1011.1
20260506142342 57 255 6.0 9.0 0.00 0.23 0.23 92 1011.1
20260506141840 57 269 10.0 11.0 0.00 0.23 0.23 91 1011.3
20260506141338 57 294 9.0 11.0 0.00 0.23 0.23 90 1011.4
20260506140836 57 245 8.0 14.0 0.00 0.23 0.23 89 1010.9
20260506140332 57 244 8.0 11.0 0.00 0.23 0.23 90 1011.3
20260506135829 57 296 8.0 11.0 0.00 0.23 0.23 90 1010.9
20260506135326 57 264 6.0 13.0 0.00 0.23 0.23 90 1011.3
20260506134822 57 223 5.0 8.0 0.00 0.23 0.23 91 1011.4
20260506134319 57 234 6.0 13.0 0.00 0.23 0.23 91 1011.4
20260506133816 57 246 2.0 6.0 0.05 0.23 0.23 92 1011.4
20260506133313 57 231 3.0 7.0 0.05 0.23 0.23 92 1011.7
20260506132809 57 293 8.0 9.0 0.00 0.22 0.22 92 1011.9
20260506132307 56 290 5.0 10.0 0.07 0.22 0.22 92 1012.0
20260506131805 56 252 5.0 10.0 0.07 0.22 0.22 92 1011.6
20260506131300 56 252 3.0 6.0 0.00 0.21 0.21 92 1011.7
20260506130757 56 244 4.0 7.0 0.05 0.21 0.21 92 1011.7
20260506130254 56 246 4.0 7.0 0.00 0.20 0.20 92 1011.9
20260506125752 56 250 4.0 4.0 0.00 0.20 0.20 92 1011.6
20260506125250 56 232 3.0 6.0 0.00 0.20 0.20 92 1011.6
20260506124748 55 278 5.0 6.0 0.00 0.20 0.20 92 1011.5
20260506124245 55 260 5.0 6.0 0.07 0.20 0.20 92 1011.8
20260506123743 55 287 4.0 6.0 0.07 0.20 0.20 91 1011.5
20260506123242 55 225 4.0 4.0 0.00 0.19 0.19 91 1011.6
20260506122738 55 240 5.0 6.0 0.00 0.19 0.19 91 1011.8
20260506122235 55 257 2.0 6.0 0.05 0.19 0.19 91 1011.6
20260506121733 55 256 3.0 4.0 0.05 0.19 0.19 91 1011.8
20260506121230 55 248 3.0 4.0 0.00 0.18 0.18 91 1011.8
20260506120727 55 245 3.0 3.0 0.07 0.18 0.18 91 1011.9
20260506120225 55 251 2.0 3.0 0.07 0.18 0.18 91 1011.8
20260506115722 55 235 3.0 4.0 0.00 0.17 0.17 91 1011.5
20260506115220 54 242 2.0 4.0 0.00 0.17 0.17 91 1011.4
20260506114718 54 261 1.0 2.0 0.05 0.17 0.17 91 1011.3
20260506114215 54 247 3.0 3.0 0.12 0.17 0.17 91 1011.8
20260506113713 54 248 3.0 3.0 0.12 0.16 0.16 91 1011.5
20260506113211 54 234 3.0 7.0 0.12 0.15 0.15 90 1011.7
20260506112707 54 239 2.0 7.0 0.14 0.14 0.14 91 1011.6
20260506112205 53 243 2.0 2.0 0.12 0.13 0.13 92 1011.6
20260506111702 53 247 1.0 2.0 0.05 0.12 0.12 92 1011.8
20260506111200 53 245 0.0 0.0 0.00 0.11 0.11 92 1011.8
20260506110656 53 246 0.0 2.0 0.07 0.11 0.11 92 1011.8
20260506110154 53 243 2.0 2.0 0.12 0.11 0.11 91 1011.9
20260506105651 53 247 2.0 3.0 0.12 0.10 0.10 91 1011.8
20260506105148 53 244 3.0 4.0 0.12 0.09 0.09 91 1011.8
20260506104646 53 250 4.0 4.0 0.17 0.08 0.08 90 1011.9
20260506104143 53 276 6.0 7.0 0.19 0.07 0.07 90 1011.9
20260506103640 53 244 4.0 4.0 0.12 0.05 0.05 90 1011.9
20260506103137 53 255 2.0 4.0 0.12 0.04 0.04 88 1011.9
20260506102635 54 249 2.0 6.0 0.12 0.03 0.03 87 1012.0
20260506102132 54 237 3.0 4.0 0.12 0.02 0.02 87 1012.1
20260506101629 55 244 3.0 4.0 0.07 0.01 0.01 85 1012.2
20260506101125 55 257 4.0 7.0 0.00 0.00 0.00 83 1012.2
20260506100624 55 261 3.0 4.0 0.00 0.00 0.00 81 1011.9
20260506100122 55 246 2.0 3.0 0.00 0.00 0.00 81 1012.2
20260506095620 56 250 3.0 4.0 0.00 0.00 0.00 80 1012.1
20260506095117 55 247 4.0 6.0 0.00 0.00 0.00 78 1012.1
20260506094614 56 273 2.0 3.0 0.00 0.00 0.00 78 1012.0
20260506094112 56 252 1.0 2.0 0.00 0.00 0.00 78 1011.7
20260506093610 56 249 2.0 3.0 0.00 0.00 0.00 76 1012.0
20260506093107 57 262 2.0 4.0 0.00 0.00 0.00 74 1012.0
20260506092605 57 267 2.0 4.0 0.00 0.00 0.00 71 1011.8
20260506092101 58 261 2.0 3.0 0.00 0.00 0.00 70 1011.8
20260506091600 58 254 3.0 6.0 0.00 0.00 0.00 69 1011.9
20260506091057 58 272 6.0 7.0 0.00 0.00 0.00 67 1011.8
20260506090554 59 237 7.0 9.0 0.00 0.00 0.00 64 1011.8
20260506090050 60 268 5.0 7.0 0.00 0.00 0.00 61 1012.2
20260506085548 60 267 6.0 8.0 0.00 0.00 0.00 58 1012.1
20260506085044 60 258 7.0 7.0 0.00 0.00 0.00 58 1012.1
20260506084541 60 243 4.0 7.0 0.00 0.00 0.00 58 1012.2
20260506084037 59 242 5.0 6.0 0.00 0.00 0.00 58 1012.0
20260506083534 60 242 4.0 6.0 0.00 0.00 0.00 59 1011.9
20260506083032 59 236 4.0 7.0 0.00 0.00 0.00 59 1012.0
20260506082528 58 250 4.0 4.0 0.00 0.00 0.00 60 1011.9
20260506082024 58 234 2.0 3.0 0.00 0.00 0.00 60 1012.0
20260506081522 57 224 1.0 3.0 0.00 0.00 0.00 63 1012.1
20260506081020 57 235 2.0 3.0 0.00 0.00 0.00 61 1012.0
20260506080517 57 241 3.0 3.0 0.00 0.00 0.00 62 1012.1
20260506073500 56 247 1.0 2.0 0.00 0.00 0.00 64 1012.1
20260506072957 56 248 2.0 3.0 0.00 0.00 0.00 63 1012.0
20260506072455 55 250 3.0 3.0 0.00 0.00 0.00 65 1012.2
20260506071953 55 250 0.0 0.0 0.00 0.00 0.00 66 1012.2
20260506071450 54 250 0.0 0.0 0.00 0.00 0.00 67 1012.1
20260506070947 55 249 0.0 0.0 0.00 0.00 0.00 66 1012.3
20260506070444 56 250 0.0 0.0 0.00 0.00 0.00 64 1012.5
20260506062422 60 277 0.0 0.0 0.00 0.00 0.00 56 1012.9
20260506061917 60 277 0.0 0.0 0.00 0.00 0.00 55 1012.8
20260506061414 61 277 0.0 0.0 0.00 0.00 0.00 55 1012.8
20260506060912 61 277 1.0 2.0 0.00 0.00 0.00 54 1012.8
20260506060410 61 252 1.0 2.0 0.00 0.00 0.00 53 1013.0
20260506051342 61 262 2.0 4.0 0.00 0.00 0.00 53 1013.6
20260506050839 61 236 2.0 4.0 0.00 0.00 0.00 53 1013.6
20260506050336 61 246 1.0 2.0 0.00 0.00 0.00 53 1013.6
20260506044827 60 231 1.0 3.0 0.00 0.00 0.00 54 1013.8
20260506044325 60 239 0.0 0.0 0.00 0.00 0.00 53 1013.8
20260506043822 61 239 0.0 0.0 0.00 0.00 0.00 53 1013.9
20260506043319 61 241 0.0 2.0 0.00 0.00 0.00 54 1013.9
20260506042817 61 246 2.0 3.0 0.00 0.00 0.00 53 1013.9
20260506042316 61 243 0.0 0.0 0.00 0.00 0.00 54 1013.9
20260506041814 60 243 0.0 0.0 0.00 0.00 0.00 54 1013.6
20260506041311 61 243 0.0 0.0 0.00 0.00 0.00 54 1014.1
20260506040808 61 243 1.0 2.0 0.00 0.00 0.00 54 1014.2
20260506040305 61 243 2.0 2.0 0.00 0.02 0.02 52 1013.9
20260506035802 62 243 2.0 2.0 0.00 0.02 0.02 52 1014.1
20260506035259 62 237 3.0 3.0 0.00 0.02 0.02 53 1013.9
20260506034756 62 238 3.0 4.0 0.00 0.02 0.02 52 1014.0
20260506034253 62 243 3.0 4.0 0.00 0.02 0.02 53 1014.0
20260506033750 60 233 2.0 3.0 0.00 0.02 0.02 56 1013.8
20260506033247 59 242 3.0 3.0 0.00 0.02 0.02 58 1014.1
20260506032744 59 244 1.0 2.0 0.00 0.02 0.02 63 1014.0
20260506032241 60 244 0.0 0.0 0.00 0.02 0.02 61 1014.1
20260506031737 61 244 0.0 1.0 0.00 0.02 0.02 57 1014.1
20260506031235 61 244 2.0 2.0 0.00 0.02 0.02 56 1014.3
20260506030733 61 244 3.0 3.0 0.00 0.02 0.02 56 1014.4
20260506030230 60 245 3.0 3.0 0.00 0.02 0.02 57 1014.3
20260506025727 60 244 2.0 3.0 0.00 0.02 0.02 58 1014.3
20260506025223 60 246 2.0 3.0 0.00 0.02 0.02 60 1014.5
20260506024720 59 242 2.0 3.0 0.00 0.02 0.02 60 1014.4
20260506024217 59 248 2.0 3.0 0.00 0.02 0.02 60 1014.6
20260506023713 59 255 2.0 3.0 0.00 0.02 0.02 60 1014.5
20260506023211 59 266 2.0 2.0 0.00 0.02 0.02 59 1014.6
20260506022707 59 270 2.0 3.0 0.00 0.02 0.02 59 1014.8
20260506022205 59 261 2.0 3.0 0.00 0.02 0.02 59 1014.7
20260506021703 59 279 2.0 3.0 0.00 0.02 0.02 59 1014.7
20260506021200 59 279 2.0 3.0 0.00 0.02 0.02 59 1014.8
20260506020656 58 279 2.0 2.0 0.00 0.02 0.02 62 1014.5
20260506020154 57 279 2.0 2.0 0.00 0.02 0.02 62 1014.5
20260506015652 57 279 1.0 2.0 0.00 0.02 0.02 62 1014.4
20260506015149 57 279 2.0 2.0 0.00 0.02 0.02 63 1014.4
20260506014646 56 280 2.0 2.0 0.00 0.02 0.02 64 1014.6
20260506014142 57 279 2.0 2.0 0.00 0.02 0.02 64 1014.6
20260506013640 57 279 1.0 2.0 0.00 0.02 0.02 61 1014.3
20260506013137 58 279 2.0 2.0 0.00 0.02 0.02 61 1014.3
20260506012633 58 279 2.0 2.0 0.00 0.02 0.02 59 1014.2
20260506012130 58 279 2.0 3.0 0.00 0.02 0.02 59 1014.6
20260506011627 58 280 2.0 3.0 0.00 0.02 0.02 59 1014.6
20260506011123 58 280 2.0 2.0 0.00 0.02 0.02 61 1014.5
20260506010622 58 279 2.0 2.0 0.00 0.02 0.02 61 1014.5
20260506010119 58 279 0.0 0.0 0.00 0.02 0.02 60 1014.4
20260506005616 59 279 0.0 0.0 0.00 0.02 0.02 58 1014.6
20260506005112 60 279 0.0 0.0 0.00 0.02 0.02 57 1014.5
20260506004609 60 279 0.0 0.0 0.00 0.02 0.02 56 1014.3
20260506004106 60 279 2.0 3.0 0.00 0.02 0.02 56 1014.5
20260506003602 60 280 2.0 2.0 0.00 0.02 0.02 58 1014.5
20260506003058 60 278 2.0 2.0 0.00 0.02 0.02 56 1014.5
20260506002554 60 278 2.0 2.0 0.00 0.02 0.02 56 1014.6
20260506002050 61 278 1.0 2.0 0.00 0.02 0.02 55 1014.3
20260506001547 61 275 2.0 2.0 0.00 0.02 0.02 55 1014.4
20260506001044 62 275 1.0 2.0 0.00 0.02 0.02 54 1014.4
20260506000541 62 273 2.0 2.0 0.00 0.02 0.02 54 1014.1
20260506000039 62 274 2.0 3.0 0.00 0.02 0.02 52 1014.2
20260505235537 63 276 2.0 3.0 0.00 0.02 0.02 53 1014.2
20260505235033 64 276 1.0 2.0 0.00 0.02 0.02 52 1013.9
20260505234530 64 269 2.0 3.0 0.00 0.02 0.02 50 1014.1
20260505234027 65 271 2.0 3.0 0.00 0.02 0.02 50 1014.0
20260505233525 65 273 2.0 2.0 0.00 0.02 0.02 49 1014.1
20260505233022 65 254 3.0 3.0 0.00 0.02 0.02 48 1014.0
20260505232520 65 254 4.0 6.0 0.00 0.02 0.02 48 1013.9
20260505232017 65 262 3.0 4.0 0.00 0.02 0.02 48 1014.0
20260505231514 66 266 2.0 2.0 0.00 0.02 0.02 49 1014.1
20260505231013 66 273 2.0 3.0 0.00 0.02 0.02 48 1014.1
20260505230509 67 288 4.0 4.0 0.00 0.02 0.02 47 1014.4
20260505230006 67 269 3.0 4.0 0.00 0.02 0.02 47 1014.1
20260505225503 67 263 3.0 4.0 0.00 0.02 0.02 48 1014.2
20260505224959 67 277 3.0 3.0 0.00 0.02 0.02 47 1014.2
20260505224456 67 271 4.0 4.0 0.00 0.02 0.02 46 1014.0
20260505223953 67 279 3.0 6.0 0.00 0.02 0.02 47 1014.3
20260505223450 66 271 3.0 4.0 0.00 0.02 0.02 47 1014.4
20260505222946 67 297 2.0 6.0 0.00 0.02 0.02 47 1014.5
20260505222442 68 275 3.0 6.0 0.00 0.02 0.02 45 1014.6
20260505221938 69 288 4.0 6.0 0.00 0.02 0.02 44 1014.5
20260505221436 69 263 4.0 8.0 0.00 0.02 0.02 43 1014.7
20260505220933 69 288 4.0 7.0 0.00 0.02 0.02 43 1014.5
20260505220430 69 298 2.0 8.0 0.00 0.02 0.02 46 1014.6
20260505215927 69 293 2.0 4.0 0.00 0.02 0.02 44 1014.5
20260505215425 69 270 4.0 8.0 0.00 0.02 0.02 42 1014.5
20260505214923 70 276 3.0 6.0 0.00 0.02 0.02 43 1014.5
20260505214421 70 260 7.0 8.0 0.00 0.02 0.02 41 1014.5
20260505213918 70 256 7.0 7.0 0.00 0.02 0.02 40 1014.4
20260505213415 70 264 5.0 7.0 0.00 0.02 0.02 41 1014.5
20260505212911 70 265 4.0 7.0 0.00 0.02 0.02 41 1014.4
20260505212408 70 272 6.0 7.0 0.00 0.02 0.02 41 1014.3
20260505211904 70 292 4.0 9.0 0.00 0.02 0.02 40 1014.3
20260505211402 70 264 7.0 9.0 0.00 0.02 0.02 40 1014.3
20260505210858 70 302 5.0 7.0 0.00 0.02 0.02 41 1014.2
20260505210356 71 271 7.0 9.0 0.00 0.02 0.02 39 1014.3
20260505205852 71 335 2.0 6.0 0.00 0.02 0.02 42 1014.4
20260505205351 71 268 5.0 6.0 0.00 0.02 0.02 38 1014.3
20260505204847 71 264 6.0 9.0 0.00 0.02 0.02 38 1014.3
20260505204345 71 285 4.0 9.0 0.00 0.02 0.02 38 1014.4
20260505203842 71 293 8.0 11.0 0.00 0.02 0.02 36 1014.2
20260505203338 71 252 7.0 9.0 0.00 0.02 0.02 37 1014.4
20260505202835 72 260 7.0 9.0 0.00 0.02 0.02 35 1014.3
20260505202331 72 244 5.0 6.0 0.00 0.02 0.02 35 1014.1
20260505201828 71 271 4.0 8.0 0.00 0.02 0.02 35 1014.0
20260505201325 72 242 9.0 15.0 0.00 0.02 0.02 32 1014.2
20260505200823 72 245 4.0 8.0 0.00 0.02 0.02 33 1014.3
20260505200320 72 273 8.0 13.0 0.00 0.02 0.02 32 1014.4
20260505195815 71 259 5.0 9.0 0.00 0.02 0.02 32 1014.4
20260505195313 72 246 9.0 16.0 0.00 0.02 0.02 30 1014.4
20260505194810 72 267 6.0 11.0 0.00 0.02 0.02 32 1014.4
20260505194307 72 307 6.0 11.0 0.00 0.02 0.02 34 1014.3
20260505193802 72 254 6.0 8.0 0.00 0.02 0.02 37 1014.5
20260505193300 73 225 6.0 8.0 0.00 0.02 0.02 36 1014.4
20260505192758 72 240 5.0 9.0 0.00 0.02 0.02 35 1014.3
20260505192256 73 247 8.0 13.0 0.00 0.02 0.02 35 1014.4
20260505191754 73 255 6.0 11.0 0.00 0.02 0.02 35 1014.6
20260505191252 73 278 9.0 13.0 0.00 0.02 0.02 35 1014.5
20260505190748 74 256 10.0 13.0 0.00 0.02 0.02 33 1014.6
20260505190243 74 281 11.0 14.0 0.00 0.02 0.02 33 1014.5
20260505185739 74 284 6.0 10.0 0.00 0.02 0.02 34 1014.4
20260505185236 74 253 6.0 15.0 0.00 0.02 0.02 34 1014.7
20260505184732 74 314 8.0 10.0 0.00 0.02 0.02 34 1014.6
20260505184230 75 281 6.0 9.0 0.00 0.02 0.02 32 1014.7
20260505183726 75 257 6.0 10.0 0.00 0.02 0.02 32 1014.7
20260505183224 73 237 5.0 7.0 0.00 0.02 0.02 35 1015.1
20260505182720 74 254 9.0 13.0 0.00 0.02 0.02 32 1015.2
20260505182217 74 261 6.0 9.0 0.00 0.02 0.02 35 1015.2
20260505181713 74 255 9.0 13.0 0.00 0.02 0.02 35 1015.1
20260505181211 74 273 11.0 18.0 0.00 0.02 0.02 35 1015.1
20260505180707 73 275 10.0 16.0 0.00 0.02 0.02 34 1014.9
20260505180204 73 246 10.0 14.0 0.00 0.02 0.02 35 1015.1
20260505175700 73 252 7.0 10.0 0.00 0.02 0.02 36 1015.2
20260505175157 73 266 9.0 11.0 0.00 0.02 0.02 37 1015.2
20260505174653 73 258 8.0 10.0 0.00 0.02 0.02 38 1015.4
20260505174149 73 269 9.0 11.0 0.00 0.02 0.02 38 1015.2
20260505173646 72 271 13.0 16.0 0.00 0.02 0.02 36 1015.2
20260505173143 72 267 9.0 13.0 0.00 0.02 0.02 36 1015.3
20260505172641 71 244 7.0 9.0 0.00 0.02 0.02 38 1015.3
20260505172138 72 223 4.0 9.0 0.00 0.02 0.02 39 1015.3
20260505171637 72 250 10.0 17.0 0.00 0.02 0.02 38 1015.5
20260505171135 71 223 6.0 11.0 0.00 0.02 0.02 38 1015.6
20260505170632 72 241 6.0 11.0 0.00 0.02 0.02 39 1015.6
20260505170128 70 284 7.0 10.0 0.00 0.02 0.02 42 1015.7
20260505165623 72 250 7.0 13.0 0.00 0.02 0.02 44 1015.6
20260505165120 70 250 7.0 9.0 0.00 0.02 0.02 44 1015.7
20260505164615 67 256 8.0 9.0 0.00 0.02 0.02 46 1015.9
20260505164113 68 263 5.0 13.0 0.00 0.02 0.02 45 1015.8
20260505163611 69 281 11.0 14.0 0.00 0.02 0.02 45 1016.1
20260505163108 68 272 9.0 11.0 0.00 0.02 0.02 45 1016.0